Location: Unspecified
(0.0000°N, 0.0000°E)
Time: 01:13:13
(UTC+00:00)

LEMUR 2 DEMBITZ - Pass Details

Date: 23 January 2026
Orbit: 483 x 493 km, 97.4° (Epoch: 10 February)

Event Time Altitude Azimuth Distance (km) Brightness Sun altitude
Rises 05:25:23 0° 167° (SSE) 2,583 ? -10.9°
Reaches altitude 10° 05:27:28 10° 165° (SSE) 1,698 ? -10.4°
Maximum altitude 05:31:07 78° 79° (E) 511 ? -9.6°
Drops below altitude 10° 05:34:45 10° 353° (N) 1,687 ? -8.7°
Sets 05:36:48 0° 351° (N) 2,565 ? -8.2°
